Regional Weather Roundup
Issued by NWS

Home | Current Version | Previous Version | Graphics & Text | Print | Product List | Glossary On
Versions: 1 2 3 4 5 6 7 8 9 10 11 12 13 14 15 16 17 18 19 20 21 22 23 24 25 26 27 28 29 30 31 32 33 34 35 36 37 38 39 40 41 42 43 44 45 46 47 48 49 50
000
ASUS43 KOAX 140110
RWRNE

WEATHER ROUNDUP FOR NEBRASKA
NATIONAL WEATHER SERVICE OMAHA NE
800 PM CDT SUN JUL 13 2014

NOTES: SATELLITE DATA IS BEING USED TO AUGMENT CLOUD COVER ABOVE
       12000 FEET.
       "FAIR" INDICATES FEW OR NO CLOUDS BELOW 12,000 FEET WITH NO
       SIGNIFICANT WEATHER AND/OR OBSTRUCTIONS TO VISIBILITY.

  * THESE STATIONS DO NOT REPORT WEATHER SUCH AS RAIN...SNOW OR FOG.

NEZ001>004-019>022-054>056-140200-
NEBRASKA PANHANDLE

CITY           SKY/WX    TMP DP  RH WIND       PRES   REMARKS
SCOTTSBLUFF    SUNNY     85  58  39 W3        30.13F
ALLIANCE       SUNNY     82  54  37 W6        30.13S
CHADRON        MOSUNNY   84  55  36 NE13      30.10R
KIMBALL        MOSUNNY   75  59  57 S8        30.20F
SIDNEY         MOSUNNY   78  59  51 W6        30.17F
$$

NEZ057>060-069>072-079>082-140200-
SOUTHWEST NEBRASKA

CITY           SKY/WX    TMP DP  RH WIND       PRES   REMARKS
NORTH PLATTE   MOSUNNY   82  58  43 SE5       30.06F
IMPERIAL       CLOUDY    73  62  68 SW9       30.12F
LEXINGTON      PTSUNNY   86  63  46 CALM      30.06S
MCCOOK         CLOUDY    80  63  55 W8        30.09R
OGALLALA       MOSUNNY   79  61  53 SW3       30.10F
$$

NEZ005>010-023>029-035>040-094-140200-
NORTH CENTRAL NEBRASKA

CITY           SKY/WX    TMP DP  RH WIND       PRES   REMARKS
VALENTINE      MOSUNNY   83  55  38 N5        30.06S
AINSWORTH      SUNNY     79  57  46 N5        30.06F
BROKEN BOW     SUNNY     82  65  56 NE5       30.06S
O`NEILL        PTSUNNY   81  59  47 N3        30.03S
ORD            SUNNY     80  66  62 NW3       30.03S
THEDFORD       SUNNY     83  54  36 NE6       30.09R
$$

NEZ041-046>049-061>064-073>077-083>087-140200-
SOUTH CENTRAL NEBRASKA

CITY           SKY/WX    TMP DP  RH WIND       PRES   REMARKS
GRAND ISLAND   SUNNY     83  66  56 N6        30.04R
AURORA         SUNNY     82  64  55 N6        30.03R
HASTINGS       MOSUNNY   85  63  47 N5        30.04R
HEBRON         PTCLDY    83  72  67 CALM      30.01S
HOLDREGE       PTSUNNY   84  58  42 CALM      30.06S
KEARNEY *      MOSUNNY   82  61  47 N8        30.06R
YORK           PTCLDY    81  70  69 NE6       30.02R
$$

NEZ011>018-030>034-042>045-140200-
NORTHEAST NEBRASKA

CITY           SKY/WX    TMP DP  RH WIND       PRES   REMARKS
NORFOLK        SUNNY     80  62  54 W6        29.99S
ALBION         SUNNY     81  60  48 CALM      30.02S
BLAIR          PTCLDY    81  64  56 CALM      29.98S
FREMONT        PTCLDY    84  67  57 NW3       29.99S
TEKAMAH        CLEAR     84  66  54 CALM      29.96S
WAYNE          MOCLDY    80  66  63 W6        29.98S
$$

NEZ050>053-065>068-078-088>093-140200-
SOUTHEAST NEBRASKA

CITY           SKY/WX    TMP DP  RH WIND       PRES   REMARKS
LINCOLN        PTCLDY    83  70  64 W6        30.00S
OMAHA EPPLEY   MOCLDY    83  66  56 W3        29.97S
BEATRICE       MOCLDY    78  67  69 N7        30.00R
FALLS CITY     CLEAR     84  71  65 CALM      29.97R
NEBRASKA CITY  PTCLDY    80  67  64 NW5       29.98S
PLATTSMOUTH    PTCLDY    82  67  61 CALM      29.98S
$$

NEZ044-045-051>053-067-140200-
OMAHA AREA

CITY           SKY/WX    TMP DP  RH WIND       PRES   REMARKS
OMAHA EPPLEY   MOCLDY    83  66  56 W3        29.97S
BLAIR          PTCLDY    81  64  56 CALM      29.98S
FREMONT        PTCLDY    84  67  57 NW3       29.99S
MILLARD        PTCLDY    83  67  56 CALM      29.96S
OFFUTT AFB     PTCLDY    83  72  69 N5        29.96F
PLATTSMOUTH    PTCLDY    82  67  61 CALM      29.98S
WAHOO          FAIR      82  68  63 CALM      29.98S
$$


USA.gov is the U.S. government's official web portal to all federal, state and local government web resources and services.